Flag for U.S.A. Weather past 2 weeks in Macon, Georgia, U.S.A.

Now
44 °F

Sunny.


Feels Like: 40 °F
Forecast: 38 / 54 °F
Wind: 7 mph from West

Location: Middle Georgia Regional Airport

Current Time: Dec 25, 2014 at 10:01:14 AM

Latest Report: Dec 25, 2014 at 8:53 AM


Visibility: 10 mi

Pressure: 30.19 "Hg

Humidity: 79%

Dew point: 38 °F

Location of MaconLocation

Historic Weather in Macon — Graph

°F

Macon temperature yesterday

Maximum temperature yesterday: 68 °F (at 1:53 PM)
Minimum temperature yesterday: 50 °F (at 11:53 PM)
Average temperature yesterday: 61 °F

Past Weeks' High & Low Weather Summary

 TemperatureHumidityPressure
High71 °F (Dec 14, 2:53 PM)100% (Dec 14, 4:53 AM)30.32 "Hg (Dec 14, 4:53 AM)
Low26 °F (Dec 11, 4:53 AM)17% (Dec 12, 2:53 PM)29.66 "Hg (Dec 24, 3:53 PM)
Average48 °F77%30.07 "Hg
* Reported Dec 10 8:53 AM — Dec 25 8:53 AM, Macon, Weather by CustomWeather, © 2014

Note: Actual official high and low records may vary slightly from our data, if they occured in-between our weather recording intervals... More about our weather records

Advertising

Macon weather history for previous 24 hours

 ConditionsComfort  
Time TempWeatherWind HumidityBarometerVisibility
8:53 AM
Dec 25
44 °FSunny.7 mph79%30.19 "Hg10 mi
7:53 AM42 °FSunny.7 mph82%30.16 "Hg10 mi
6:53 AM45 °FClear.7 mph74%30.11 "Hg10 mi
5:53 AM46 °FClear.12 mph68%30.07 "Hg10 mi
4:53 AM47 °FClear.14 mph64%30.04 "Hg10 mi
3:53 AM48 °FClear.10 mph74%30.02 "Hg10 mi
2:53 AM49 °FPassing clouds.10 mph80%29.99 "Hg10 mi
1:53 AM49 °FClear.7 mph84%29.95 "Hg10 mi
12:53 AM50 °FClear.9 mph80%29.93 "Hg10 mi
11:53 PM
Dec 24
50 °FClear.12 mph83%29.91 "Hg10 mi
10:53 PM51 °FClear.15 mph77%29.91 "Hg10 mi
9:53 PM52 °FPassing clouds.8 mph80%29.89 "Hg10 mi
8:53 PM53 °FClear.14 mph80%29.85 "Hg10 mi
7:53 PM56 °FPassing clouds.17 mph81%29.80 "Hg10 mi
6:53 PM59 °FPassing clouds.18 mph84%29.76 "Hg10 mi
5:53 PM65 °FPartly cloudy.25 mph81%29.72 "Hg10 mi
4:53 PM67 °FSunny.12 mph85%29.67 "Hg10 mi
3:53 PM68 °FPassing clouds.7 mph90%29.66 "Hg10 mi
2:53 PM68 °FScattered clouds.9 mph90%29.67 "Hg10 mi
1:53 PM68 °FBroken clouds.7 mph93%29.66 "Hg10 mi
12:53 PM67 °FBroken clouds.12 mph97%29.68 "Hg10 mi
11:53 AM65 °FLight rain. Mostly cloudy.8 mph100%29.68 "Hg8 mi
10:53 AM63 °FLow clouds.9 mph100%29.70 "Hg7 mi
10:00 AM63 °FLight rain. Fog.7 mph100%29.70 "Hg6 mi
Weather by CustomWeather, © 2014

See weather overviewHow to use our weather pages